Regional Weather Roundup
Issued by NWS

Home | Current Version | Previous Version | Graphics & Text | Print | Product List | Glossary On
Versions: 1 2 3 4 5 6 7 8 9 10 11 12 13 14 15 16 17 18 19 20 21 22 23 24 25 26 27 28 29 30 31 32 33 34 35 36 37 38 39 40 41 42 43 44 45 46 47 48 49 50
000
ASUS45 KTFX 231919
RWRMT
MONTANA HOURLY WEATHER ROUNDUP
NATIONAL WEATHER SERVICE GREAT FALLS MT
119 PM MDT TUE SEP 23 2014

NOTE: "FAIR" INDICATES FEW OR NO CLOUDS BELOW 12000 FEET WITH NO
SIGNIFICANT WEATHER AND/OR OBSTRUCTIONS TO VISIBILITY.

* THESE STATIONS ARE NOT UNDER NWS QUALITY CONTROL. THEY DO NOT
   REPORT WEATHER SUCH AS PRECIPITATION OR FOG.

MTZ001>007-043-232000-
WEST OF THE DIVIDE
CITY           SKY/WX    TMP DP  RH WIND       PRES   REMARKS
KALISPELL      PTCLDY    72  52  49 CALM      29.98F
MISSOULA       PTCLDY    73  45  37 VRB3      30.02F
BUTTE          SUNNY     72  45  38 NE6       30.14F
MULLAN PASS    PTSUNNY   57  46  67 VRB6      30.11S
* ESSEX        N/A       70  46  42 N/A        N/A
* LINCOLN      N/A       71  43  37 W2         N/A
* POLSON       N/A       74  51  45 SW3        N/A
* RONAN APT    PTCLDY    77  46  33 SE8        N/A
* SEELEY LAKE  N/A       73  44  35 S5         N/A
* THOMP F APT  PTSUNNY   61  51  70 SE4G9      N/A
$$

MTZ008-052>055-232000-
SOUTHWEST MONTANA
CITY           SKY/WX    TMP DP  RH WIND       PRES   REMARKS
BOZEMAN        PTCLDY    72  48  43 CALM      30.10F
DILLON         SUNNY     72  46  40 SW6       30.13F
W YELLOWSTONE  PTSUNNY   63  48  58 SW14      30.27F
* THREE FORKS  PTCLDY    72 -20   2 N/A        N/A
* BOULDER HILL N/A       68  44  42 S14G22     N/A
* MONIDA PASS  N/A       59  50  72 SE18G23    N/A
* RAYNOLDS PAS N/A       61  43  52 SE19G26    N/A
* WHITEHALL    N/A       74  50  43 SW6G12     N/A
* WISE RIVER   N/A       63  47  56 E6         N/A
$$

MTZ009>010-012-014-046-048-049-054-232000-
EAST SLOPES AND CENTRAL MONTANA
CITY           SKY/WX    TMP DP  RH WIND       PRES   REMARKS
CUT BANK       PTCLDY    73  45  37 W13       29.99F
GREAT FALLS    PTCLDY    77  46  33 SW12      29.99F
HELENA         PTCLDY    75  52  45 N5        30.04F
MALMSTROM AFB  SUNNY     77  46  33 SW13      30.00F
* CONRAD       PTSUNNY   75  48  39 W10G16     N/A
* EAST GLACIER N/A       69  43  39 W17G22     N/A
* MONARCH      N/A       71  42  35 W13        N/A
* PENDROY      N/A       72  53  51 N6         N/A
* ROGERS PASS  N/A       67  41  39 E8G16      N/A
* SAINT MARY   N/A       70  45  41 SW5G13     N/A
* SWEET GRASS  N/A       72  44  37 NW15G22    N/A
* WHITE SULPH  N/A       74  45  36 W4G11      N/A
$$

MTZ011-013-016-021-035-040-045-047-050-051-232000-
NORTH CENTRAL MONTANA
CITY           SKY/WX    TMP DP  RH WIND       PRES   REMARKS
HAVRE          SUNNY     81  48  32 SW13      29.91F
LEWISTOWN      SUNNY     79  45  30 N6        30.02F
* CHINOOK      SUNNY     79  50  36 SW12G21   29.90S
* FORT BENTON  SUNNY     81  46  29 W9        29.95F
* CHESTER      N/A       78  42  28 NW8G17     N/A
* DENTON       N/A       80  47  31 W4G12      N/A
* GEYSER       N/A       76  46  35 W8G15      N/A
* JUDITH GAP   N/A       75  45  34 N6         N/A
* LOMA         N/A       79  47  32 W6G12      N/A
$$

MTZ017>020-022>027-061-062-232000-
NORTHEAST MONTANA
CITY           SKY/WX    TMP DP  RH WIND       PRES   REMARKS
GLASGOW        SUNNY     79  54  42 W10G18    29.86F
GLENDIVE       SUNNY     82  55  40 W3        29.87F HI  81
JORDAN         SUNNY     82  48  31 NW12G21   29.90R
SIDNEY         SUNNY    N/A N/A N/A SE3       29.85F
WOLF POINT     SUNNY     79  55  44 W7        29.85F
* BEAVER HILL  N/A       75  53  46 W5G10      N/A
* CIRCLE       N/A       78  57  49 S1         N/A
* LINDSAY DVD  N/A       77  50  39 W8G13      N/A
* NAVAJO       N/A       81  49  33 SW8G13     N/A
$$

MTZ028>042-056>058-232000-
SOUTHCENTRAL AND SOUTHEAST MONTANA
CITY           SKY/WX    TMP DP  RH WIND       PRES   REMARKS
BAKER          SUNNY     79  54  42 W12       29.90F
BILLINGS       SUNNY     82  43  25 NW13      30.00F
LIVINGSTON     SUNNY     75  46  36 SW18      30.08F
MILES CITY     SUNNY     82  52  35 VRB6      29.89F
* LAUREL APT   SUNNY     82  46  28 W7         N/A
* ROUNDUP APT  SUNNY     81  48  32 N/A        N/A
* ALZADA       N/A       78  52  40 SW9G14     N/A
* HYSHAM       N/A       77  49  37 NW10G16    N/A
* LAME DEER    N/A       74  49  41 W10G17     N/A
* REED POINT   N/A       80  47  31 W14G21     N/A
* ROSCOE HILL  N/A       75  36  24 VRB8       N/A
$$

REGIONAL REPORTS...DAKOTAS
CITY           SKY/WX    TMP DP  RH WIND       PRES   REMARKS
WILLISTON      SUNNY     79  54  42 VRB5      29.85F
DICKINSON      SUNNY     77  59  54 S9        29.87S
BEACH          N/A       77  55  47 NW6       29.89S
CROSBY         SUNNY     79  55  44 S8        29.84F
TIOGA          SUNNY     77  55  47 S9        29.89S
WATFORD CITY   SUNNY     81  54  39 CALM      29.83F
BISMARCK       CLOUDY    66  57  73 SE18      29.93S
GRAND FORKS    SUNNY     75  57  54 S17G25    30.00F
FARGO          PTSUNNY   75  55  50 S17G25    30.03F
BUFFALO SD     SUNNY     81  54  39 SW7       29.84S
RAPID CITY     PTCLDY    77  54  45 N9        29.93F
$$

REGIONAL REPORTS...WYOMING/IDAHO/WASHINGTON
CITY           SKY/WX    TMP DP  RH WIND       PRES   REMARKS
GILLETTE       PTCLDY    79  46  31 NW18G23   30.01S
SHERIDAN       PTCLDY    81  46  29 NW20      30.02R
CODY           PTCLDY    75  46  36 CALM      30.10F
YELLOWSTONE LA PTCLDY    54  46  74 CALM      30.36F
SALMON         PTSUNNY   70  52  53 N5        30.06F
MULLAN PASS    PTSUNNY   57  46  67 VRB6      30.11S
SAND POINT     PTSUNNY   68  54  61 SE3       29.95F
SPOKANE        PTSUNNY   70  55  59 E9        29.91F
$$

REGIONAL REPORTS...ALBERTA
CITY           SKY/WX    TMP DP  RH WIND       PRES   REMARKS
CALGARY        PTSUNNY   59  50  72 VRB5      29.97F
LETHBRIDGE     PTCLDY    70  52  53 NW6       29.96F
MEDICINE HAT   PTSUNNY   72  52  49 W12       29.90R
EDMONTON       PTSUNNY   68  48  49 W6        29.91S
WATERTON GATE  N/A       72  43  35 SW9        N/A
CARDSTON       N/A       70  50  49 W5         N/A
MILK RIVER     N/A       72  50  46 NW16G22    N/A
$$

REGIONAL REPORTS...SASKATCHEWAN
CITY           SKY/WX    TMP DP  RH WIND       PRES   REMARKS
SWIFT CURRENT  SUNNY     75  48  39 W14       29.83S
MOOSE JAW      SUNNY     79  57  47 SW2       29.79S
REGINA         SUNNY     79  54  42 S6        29.79F
VAL MARIE      N/A       79  50  36 W8         N/A
ASSINIBOIA     N/A       79  43  28 W6         N/A
CORONACH       N/A       82  50  33 W6         N/A

$$



USA.gov is the U.S. government's official web portal to all federal, state and local government web resources and services.